Regional Weather Roundup
Issued by NWS

Home | Current Version | Previous Version | Text Only | Print | Product List | Glossary Off
Versions: 1 2 3 4 5 6 7 8 9 10 11 12 13 14 15 16 17 18 19 20 21 22 23 24 25 26 27 28 29 30 31 32 33 34 35 36 37 38 39 40 41 42 43 44 45 46 47 48 49 50

000
ASUS43 KFSD 270102
RWRSD

WEATHER ROUNDUP FOR SOUTH DAKOTA
NATIONAL WEATHER SERVICE SIOUX FALLS SD
700 PM CST WED NOV 26 2014

NOTE: "FAIR" INDICATES FEW OR NO CLOUDS BELOW 12,000 FEET WITH NO
SIGNIFICANT WEATHER AND/OR OBSTRUCTIONS TO VISIBILITY.


SDZ001>005-009-010-012>017-270200-
NORTHWEST AND NORTH CENTRAL SOUTH DAKOTA

CITY           SKY/WX    TMP DP  RH WIND       PRES   REMARKS
BUFFALO          N/A     20  15  81 E6        30.22S WCI  12
FAITH            N/A     18  13  80 E5        30.33R WCI  11
MOBRIDGE       PTCLDY     9   4  80 E7        30.39R WCI  -2
$$

SDZ012>016-024>037-041>051-057-063-072>074-270200-
SOUTHWEST AND SOUTH CENTRAL SOUTH DAKOTA

CITY           SKY/WX    TMP DP  RH WIND       PRES   REMARKS
RAPID CTY ARPT CLOUDY    29  25  85 CALM      30.27R
PIERRE         FLURRIES  16   9  74 E9        30.39F WCI   4
CUSTER         CLOUDY    24  20  84 SW3       30.16S
ELLSWORTH AFB  CLOUDY    29  26  89 E5        30.27  WCI  24
PHILIP         CLOUDY    26  21  81 E6        30.32S WCI  19
PINE RIDGE     CLOUDY    28  23  81 E3        30.27S
WINNER         FAIR      21  12  68 E7        30.37R WCI  12
$$

SDZ004>011-016>023-039-040-270200-
NORTHEAST SOUTH DAKOTA

CITY           SKY/WX    TMP DP  RH WIND       PRES   REMARKS
ABERDEEN       PTCLDY     3  -4  72 N8        30.49R WCI -10
WATERTOWN      CLOUDY     6  -4  63 N14       30.39R WCI -11
SISSETON         N/A     -1  -6  79 N12       30.46R WCI -18
$$

SDZ017-020-022-023-036>040-048>070-270200-
SOUTHEAST SOUTH DAKOTA

CITY           SKY/WX    TMP DP  RH WIND       PRES   REMARKS
SIOUX FALLS    CLOUDY    14   6  70 N16       30.38R WCI  -2
HURON          CLOUDY     9   1  70 N10       30.46R WCI  -5
CHAMBERLAIN    CLOUDY    15   7  71 NE8       30.41S WCI   4
MITCHELL       CLOUDY    12   5  73 N14       30.45R WCI  -3
YANKTON        PTCLDY    14   7  73 NW13      30.43S WCI   0
$$

ABBREVIATIONS USED IN REMARKS
   TC - TEMPERATURE IN CELSIUS
  WCI - WIND CHILL INDEX
   HX - HEAT INDEX
  VSB - VISIBILITY




USA.gov is the U.S. government's official web portal to all federal, state and local government web resources and services.